THOR ABLESTAR DEB, 132

Orbit data source: Space-Track

THOR ABLESTAR DEB, 132 is space debris in LEO originally from a launch on Thu, 29 Jun 1961 UTC launched from the Air Force Eastern Test Range (AFETR). Debris objects in space refer to the collection of defunct objects orbiting the Earth. Examples of debris include non-operational satellites, rocket bodies, and fragments generated from explosions, collisions, or faulty payload assembly.

Loading next visibility...
Identifier
132, 1961-015S
Orbit
LEO
Last TLE update
19 hours ago
Origin
Manufacturer
Unknown
Mission
Spacecraft
Bus & Motor
Unknown
Mass
Unknown
Launch date (UTC)
1961-06-29 (64 years ago)
Launch vehicle
Unknown
Launch site
Air Force Eastern Test Range (AFETR)
Object type
Payload
Rocket body
Debris
Shape & HBR
Unknown
Radar Cross Section
Medium (>0.1 m² and <1 m²)

Expand to show TLE details & history

TLE from 19 hours ago
0 THOR ABLESTAR DEB
1 00132U 61015S   25169.38209482  .00000010  00000-0  64915-4 0  9998
2 00132  66.6584 151.1290 0067344  73.6436 287.2035 13.94698598252935
Epoch: 2025-06-18T09:10Z
TLE epoch observation values (Epoch: 2025-06-18T09:10:12.992Z)
Latitude
0.00004°
Longitude
106.70994°
Altitude
900.06 km
Speed
7.41 km/s
True Right ascension
10h 04m 30s
True Declination
0° 00' 00"
Sunlit
Object was in daylight at epoch
Visualization orbit readout
Latitude
-54.61624°
Longitude
67.60408°
Altitude
967.396 km
Speed
7.35 km/s
Apparent Right ascension
04h 51m 27s
Apparent Declination
-53° 36' 21"
Sunlit
Object is in daylight
Visualization observer readout
Local Sidereal Time
14:38:10
Azimuth
227.445° WSW
Elevation
-63.737°
Doppler factor
1
Orbital elements
Apogee altitude
959.703 km
Perigee altitude
861.532 km
Semi-major axis
7,288.755 km
Eccentricity
0.00673
Inclination
66.6584°
RAAN
151.129°
Arg. of periapsis
73.6436°
True anomaly
Unknown
Mean anomaly
287.2035°
Eccentric anomaly
Unknown
Mean motion
3.48789 °/min
Orbital period
103.21 mins
BSTAR
0.000064915
Loading maneuver chart data...
Loading SW <> Apogee altitude chart data...

THOR ABLESTAR DEB Visibility forecast

Observer location: undefined°, undefined°

Span
Click to sort rows by Start time (UTC) header in descending order
Start Az.
Max El. time (UTC)
Max El. Az.
Max El.
End time (UTC)
End Az.
8 mins2025-06-19 08:04:07.462Z359.053° N2025-06-19 08:08:07.462Z45.591° ENE20.158°2025-06-19 08:12:07.462Z91.514° ESE
10 mins2025-06-19 09:50:07.462Z324.232° NNW2025-06-19 09:55:07.462Z219.19° SW42.659°2025-06-19 10:00:07.462Z163.015° S
7 mins2025-06-19 23:10:07.462Z149.896° SSE2025-06-19 23:13:07.462Z107.917° ESE24.065°2025-06-19 23:17:07.462Z57.557° ENE
9 mins2025-06-20 00:55:07.462Z239.845° WSW2025-06-20 00:59:07.462Z310.23° NW35.623°2025-06-20 01:04:07.462Z17.02° NNE
|